Notices

What's New in latest Release from April 7th, 2021:

- Updated Glossary, including Speed of Maximum Gust, and Total Hourly Precipitation

- Updated national and regional climate services offices contacts and prices information

- Addition of station inventory lists for 1981-2010, 1971-2000, and 1961-1990 Normals.

If you haven't already, please take our survey and provide feedback about our website: https://eccc.sondage-survey.ca/f/LanguageSelection.aspx?s=442ca660-fcf1-47c0-95a9-59707d6fd709

Hourly Data Report for November 09, 2019

MIRAMICHI RCS
NEW BRUNSWICK
Current Station Operator: ECCC - MSC

47°00'34.000" N
65°27'54.000" W
33.00 m
8100989
71744
ACQ

Download Data

Hourly Data (November 2019)
Hourly Data Report for November 9, 2019
TIME
LST
Temp Definition
°C
Dew Point Definition
°C
Rel Hum Definition
%
Precip. Amount Definition
mm

Wind Dir Definition
10's deg

Wind Spd Definition
km/h
Visibility Definition
km
Stn Press Definition
kPa
Hmdx Definition


Wind Chill Definition


Weather Definition


00:00 -5.0 -8.4 77 0.0 28 13   100.66   -10 LegendNANA
01:00 -4.9 -8.6 75 0.0 28 17   100.73   -11 LegendNANA
02:00 -5.3 -8.5 78 0.0 28 11   100.84   -10 LegendNANA
03:00 -5.6 -8.8 79 0.0 26 8   100.94   -9 LegendNANA
04:00 -6.1 -8.8 81 0.0 26 11   101.00   -11 LegendNANA
05:00 -6.0 -8.8 80 0.0 25 14   101.09   -12 LegendNANA
06:00 -6.8 -9.6 80 0.0 24 10   101.16   -11 LegendNANA
07:00 -7.0 -9.8 80 0.0 26 10   101.26   -12 LegendNANA
08:00 -6.5 -9.2 81 0.0 25 10   101.38   -11 LegendNANA
09:00 -4.9 -8.8 74 0.0 24 10   101.44   -9 LegendNANA
10:00 -3.8 -8.5 70 0.0 26 16   101.48   -9 LegendNANA
11:00 -2.7 -8.1 66 0.0 27 15   101.52   -8 LegendNANA
12:00 -1.5 -8.2 60 4.0 26 15   101.51   -6 LegendNANA
13:00 -1.0 -8.6 56 9.5 26 19   101.49   -6 LegendNANA
14:00 -0.8 -7.3 61 0.0 24 20   101.48   -6 LegendNANA
15:00 -1.0 -6.8 65 0.0 22 17   101.50   -6 LegendNANA
16:00 -1.9 -6.0 73 0.0 21 21   101.56   -8 LegendNANA
17:00 -2.5 -5.8 78 0.0 22 18   101.62   -8 LegendNANA
18:00 -3.4 -6.1 81 0.0 22 18   101.65   -9 LegendNANA
19:00 -3.8 -6.4 82 0.0 20 16   101.70   -9 LegendNANA
20:00 -4.3 -6.4 85 0.0 21 13   101.72   -9 LegendNANA
21:00 -4.2 -6.1 87 0.0 21 6   101.72   -7 LegendNANA
22:00 -4.2 -6.0 87 0.0 20 3   101.70   -5 LegendNANA
23:00 -3.6 -5.5 86 0.0 20 10   101.61   -8 LegendNANA

Notes on Data Quality.

Legend

  • E = Estimated
  • M = Missing
  • NA = Not Available*
  • [empty] = Indicates an unobserved value
Date modified: